Location: Unspecified
(51.5147°N, 7.4673°E)
Time: 08:13:04
(UTC+01:00)

A-11 Canister half - Pass Details

Date: 21 February 2026
Orbit: 1512 x 1687 km, 47.2° (Epoch: 8 March)

Event Time Altitude Azimuth Distance (km) Brightness Sun altitude
Rises 02:53:41 0° 287° (WNW) 4,895 - -41.3°
Reaches altitude 10° 02:57:12 10° 279° (W) 3,883 - -40.9°
Maximum altitude 03:05:45 35° 219° (SW) 2,380 - -39.9°
Drops below altitude 10° 03:14:01 10° 158° (SSE) 3,750 - -39.0°
Exits shadow 03:16:35 - 151° (SSE) 4,474 11.3 -38.7°
Sets 03:17:22 0° 150° (SSE) 4,708 11.5 -38.6°
